Total_Precipitation_Accumulation
0.33 0.70 1.28 2.07 2.89 3.29 2.76 1.88 1.35 1.14 1.05 1.03 1.02 1.07 1.17 1.34 2.04 3.44 3.63 3.22 2.75 2.48 2.52 2.82 3.04 2.89 2.94 2.91 2.84 2.83 2.85 3.10 3.18 3.19 3.24 3.15 2.94 2.92 2.86 2.71 2.88 3.01 2.93 3.05 3.01 2.83 2.65 2.48 2.40
0.56 1.14 1.68 2.43 3.25 3.07 2.48 1.67 1.24 1.10 0.94 0.82 0.80 1.00 1.16 1.19 1.43 2.29 3.11 3.03 2.23 2.04 2.17 2.30 2.72 2.61 2.46 2.40 2.45 2.64 2.65 2.67 2.77 2.97 3.21 3.30 3.20 3.07 3.02 2.88 3.02 3.07 2.91 3.00 2.88 2.58 2.31 2.21 2.23
0.86 1.50 2.10 2.71 2.56 2.28 1.99 1.38 1.02 0.79 0.88 0.91 0.85 0.91 1.30 1.62 1.63 2.15 2.67 2.42 1.93 1.77 1.94 2.29 2.41 2.31 2.19 2.16 2.23 2.50 2.40 2.38 2.51 2.64 2.96 3.23 3.30 3.38 3.31 3.07 3.04 2.90 2.82 2.86 2.72 2.36 2.15 2.02 2.03
1.17 1.68 2.02 2.24 1.65 1.37 1.22 0.98 0.72 0.62 0.71 0.77 0.88 1.16 1.54 1.78 1.77 2.04 2.08 1.81 1.52 1.55 1.74 2.08 2.22 2.09 1.98 2.01 2.15 2.39 2.28 2.33 2.43 2.45 2.80 3.03 3.06 3.10 3.09 3.07 2.90 2.72 2.63 2.61 2.73 2.32 2.15 2.08 2.12
1.26 1.80 2.15 1.71 1.24 1.13 0.97 0.77 0.60 0.54 0.65 0.81 0.88 1.34 2.03 2.20 1.86 1.78 1.64 1.56 1.42 1.51 1.78 1.97 2.13 2.06 1.98 2.05 2.14 2.28 2.28 2.26 2.31 2.47 2.77 2.86 2.83 2.95 2.94 2.86 2.58 2.38 2.45 2.48 2.51 2.36 2.16 2.13 2.26
1.27 1.73 1.69 1.27 1.06 0.93 0.81 0.69 0.61 0.54 0.69 0.93 0.91 1.29 2.43 2.58 1.97 1.69 1.46 1.40 1.33 1.33 1.64 1.81 2.02 2.06 1.99 1.97 2.01 2.14 2.04 2.04 2.20 2.42 2.59 2.52 2.48 2.61 2.65 2.63 2.50 2.24 2.33 2.28 2.20 2.34 2.24 2.31 2.36
1.33 1.37 1.08 0.91 0.84 0.83 0.74 0.64 0.59 0.54 0.73 1.05 0.94 1.35 2.51 2.90 2.17 1.62 1.40 1.30 1.27 1.25 1.48 1.78 2.04 2.06 2.01 1.96 1.90 2.05 2.11 2.03 2.09 2.23 2.36 2.43 2.42 2.36 2.29 2.40 2.43 2.25 2.18 2.07 2.07 2.27 2.45 2.49 2.32
0.81 0.99 0.81 0.66 0.64 0.67 0.56 0.50 0.49 0.64 0.77 0.92 0.86 1.29 2.38 2.51 1.94 1.70 1.61 1.55 1.62 1.62 1.67 1.71 1.67 1.75 1.84 1.89 1.99 2.10 2.18 2.13 2.14 2.19 2.30 2.43 2.37 2.26 2.15 1.99 2.18 2.23 2.14 2.05 2.02 2.21 2.39 2.26 2.13
0.56 0.93 0.79 0.56 0.46 0.48 0.43 0.42 0.44 0.59 0.77 0.98 1.08 1.26 1.68 1.54 1.60 1.76 1.92 2.09 2.15 2.20 2.25 1.97 1.74 1.70 1.83 1.75 1.85 2.35 2.54 2.44 2.51 2.61 2.58 2.68 2.70 2.50 2.45 2.30 2.45 2.34 2.34 2.36 2.32 2.36 2.52 2.26 1.97
0.54 0.76 0.53 0.31 0.29 0.35 0.34 0.37 0.46 0.70 0.99 1.30 1.35 1.40 1.61 1.59 1.53 1.67 1.87 2.12 2.35 2.68 2.72 2.32 2.00 1.80 1.67 1.47 1.97 2.57 2.48 2.59 2.77 2.83 2.65 2.93 3.14 3.01 2.45 2.75 3.10 3.05 3.13 2.99 2.84 2.78 2.59 2.47 2.25
0.45 0.42 0.29 0.23 0.22 0.26 0.30 0.34 0.45 0.77 1.25 1.71 1.97 2.02 1.88 1.76 1.80 1.88 1.97 2.34 2.76 3.02 2.91 2.46 2.18 1.99 1.73 1.86 1.96 2.30 2.59 2.92 2.87 2.63 2.60 3.01 2.89 2.67 2.67 2.92 3.11 3.27 3.11 2.98 2.95 3.05 2.83 3.08 3.51
0.26 0.20 0.18 0.20 0.19 0.22 0.28 0.35 0.49 0.74 1.21 1.47 1.70 1.97 2.10 2.03 2.25 2.34 2.30 2.74 3.14 3.16 2.88 2.56 2.34 2.15 2.01 1.95 1.99 2.16 2.30 2.60 2.75 2.79 2.68 2.93 3.37 3.33 3.26 3.40 3.37 3.45 3.57 3.93 3.67 3.78 3.54 3.55 3.59
0.18 0.18 0.17 0.20 0.22 0.23 0.25 0.37 0.52 0.81 0.93 1.09 1.23 1.42 1.75 2.19 2.61 2.84 2.95 3.32 3.37 3.29 3.08 2.81 2.45 2.50 2.42 2.55 2.65 2.32 2.39 2.55 2.84 3.12 3.05 3.08 3.51 3.54 3.50 3.54 3.64 3.39 3.42 3.72 4.08 3.85 3.88 4.05 3.89
0.17 0.16 0.17 0.22 0.26 0.27 0.33 0.47 0.54 0.89 0.89 0.95 1.16 1.40 1.96 2.57 2.82 3.20 3.62 3.94 3.88 3.71 3.67 3.41 2.99 3.01 3.05 2.95 2.99 2.93 2.63 2.87 2.99 3.16 3.09 3.21 3.50 3.71 3.68 3.47 3.61 3.44 3.36 3.55 3.86 3.84 4.28 4.28 4.27
0.16 0.22 0.27 0.27 0.30 0.34 0.42 0.73 0.79 0.92 0.94 1.03 1.38 1.57 2.04 2.42 2.74 2.91 3.40 3.77 3.81 3.83 3.97 3.91 3.73 3.80 3.79 3.58 3.35 3.15 3.05 3.02 3.32 3.48 3.35 3.38 3.44 3.73 3.72 3.64 3.51 3.50 3.52 3.75 3.87 3.90 4.27 4.25 4.20
0.24 0.41 0.54 0.40 0.33 0.36 0.55 1.11 0.96 0.90 1.07 1.33 1.57 1.70 1.95 2.17 2.57 2.69 3.06 3.59 3.90 3.96 4.21 4.41 4.28 4.33 4.26 4.22 4.04 3.68 3.56 3.57 3.52 3.45 3.49 3.36 3.47 3.63 3.92 3.72 3.42 3.51 3.48 3.68 4.10 4.23 4.46 4.63 4.57
0.43 0.56 0.62 0.58 0.43 0.38 0.61 1.14 1.11 1.09 1.21 1.34 1.47 1.72 1.88 1.91 2.28 2.72 3.03 3.62 4.09 4.25 4.68 5.09 5.18 5.10 4.84 4.57 4.48 4.36 4.21 3.99 3.70 3.64 3.54 3.37 3.33 3.36 3.75 3.70 3.63 3.61 3.84 3.88 3.65 4.34 4.68 4.82 4.71
0.59 0.52 0.55 0.61 0.50 0.48 0.66 0.88 0.97 1.13 1.30 1.42 1.40 1.53 1.58 1.72 2.18 2.74 3.10 3.47 4.16 4.71 5.36 5.50 5.54 5.83 5.64 5.35 5.23 5.06 4.67 4.28 3.94 3.78 3.64 3.31 3.26 3.22 3.65 3.49 3.51 3.60 3.99 4.17 4.26 4.75 4.76 4.58 4.68
0.39 0.49 0.61 0.60 0.49 0.66 0.87 1.03 1.10 1.19 1.29 1.49 1.51 1.41 1.46 1.74 2.15 2.63 3.06 3.49 3.93 4.54 5.19 5.89 6.14 6.04 5.90 5.67 5.26 4.93 4.57 4.34 3.97 3.57 3.29 3.22 3.21 3.38 3.95 3.58 3.95 3.83 3.90 4.00 4.15 4.48 4.51 4.26 4.48
0.30 0.50 0.63 0.63 0.51 0.62 0.93 1.21 1.31 1.24 1.23 1.28 1.43 1.54 1.55 1.81 2.15 2.60 3.13 3.40 3.59 3.94 4.43 4.95 5.33 5.05 4.74 4.63 4.61 4.53 4.50 4.06 3.88 3.70 3.73 3.39 3.40 3.46 3.57 3.87 3.79 3.84 4.02 3.81 3.87 4.28 4.20 3.74 4.09
0.31 0.45 0.50 0.51 0.53 0.68 1.03 1.55 1.54 1.24 1.11 1.14 1.24 1.52 1.74 1.78 2.06 2.39 2.86 3.09 3.22 3.37 3.53 3.75 4.04 4.14 4.21 4.34 4.50 4.69 4.86 4.51 4.34 4.22 4.08 3.58 3.48 3.47 3.61 3.60 3.59 3.75 3.67 3.70 3.74 3.90 4.07 3.95 3.87
0.36 0.29 0.31 0.37 0.60 1.00 1.11 1.86 1.77 1.39 1.32 1.24 1.24 1.36 1.48 1.63 1.74 1.86 2.19 2.62 2.63 2.73 2.96 3.49 3.77 3.94 4.19 4.54 4.61 4.62 4.58 4.54 4.48 4.51 4.42 4.24 3.94 3.71 3.53 3.40 3.38 3.41 3.27 3.45 3.20 3.52 3.79 4.02 3.70
0.26 0.24 0.27 0.37 0.61 0.88 0.91 1.37 1.57 1.55 1.48 1.27 1.16 1.26 1.33 1.41 1.51 1.62 1.83 2.25 2.32 2.29 2.61 3.22 3.82 4.12 4.37 4.63 4.69 4.96 4.81 4.67 4.49 4.51 4.57 4.37 4.04 3.67 3.29 3.33 3.36 3.35 3.16 3.06 3.03 3.34 3.32 3.44 3.49
0.18 0.28 0.44 0.57 0.85 1.33 0.97 1.11 1.57 1.56 1.32 1.17 1.01 1.02 1.13 1.10 1.15 1.35 1.68 2.14 2.32 2.41 2.72 3.19 3.74 4.22 4.41 4.46 4.47 4.61 4.65 4.67 4.40 4.27 3.95 3.55 3.39 3.24 2.97 3.01 3.10 3.01 2.99 3.02 2.98 3.06 3.08 3.19 3.29
0.22 0.46 1.10 1.52 1.78 1.73 0.94 0.99 1.36 1.19 1.09 1.00 1.01 0.99 0.90 0.92 1.00 1.06 1.23 1.36 1.51 1.72 2.02 2.42 2.92 3.33 3.56 3.65 3.70 3.70 3.94 4.01 3.71 3.37 3.14 2.90 2.68 2.52 2.48 2.61 2.74 2.64 2.69 2.73 2.93 2.86 2.79 2.96 3.18
0.23 0.36 0.81 1.22 1.35 1.26 1.05 1.41 1.39 1.01 0.86 0.85 0.90 0.85 0.71 0.66 0.66 0.70 0.82 0.86 1.13 1.45 1.91 2.23 2.39 2.58 2.83 2.94 2.99 3.02 3.08 3.05 2.89 2.92 2.60 2.41 2.28 2.16 2.25 2.37 2.44 2.40 2.42 2.36 2.77 2.59 2.56 2.72 2.81
0.20 0.24 0.33 0.47 0.60 0.98 1.25 1.59 1.48 1.09 0.97 0.88 0.74 0.65 0.60 0.52 0.51 0.55 0.59 0.68 0.94 1.26 1.64 1.86 2.00 2.31 2.61 2.72 2.65 2.59 2.45 2.49 2.62 2.55 2.32 2.21 2.28 2.15 2.24 2.20 2.30 2.35 2.40 2.47 2.64 2.51 2.49 2.75 2.70
0.18 0.25 0.32 0.41 0.72 1.12 1.30 1.61 1.72 1.40 1.21 0.95 0.85 0.87 0.68 0.59 0.51 0.57 0.64 0.74 0.90 1.05 1.39 1.62 1.83 2.19 2.40 2.44 2.38 2.26 2.31 2.28 2.39 2.30 2.25 2.20 2.22 2.29 2.31 2.28 2.42 2.38 2.34 2.37 2.47 2.25 2.28 2.56 2.64
0.22 0.25 0.28 0.37 0.46 0.84 1.34 1.56 1.35 1.21 1.09 0.87 0.82 0.83 0.79 0.78 0.57 0.54 0.68 0.79 0.90 1.07 1.34 1.67 1.99 2.18 2.28 2.17 2.14 2.19 2.18 2.15 2.21 2.17 2.14 2.18 2.31 2.34 2.28 2.24 2.34 2.36 2.31 2.38 2.46 2.21 2.37 2.51 2.55
0.21 0.23 0.26 0.40 0.42 0.45 0.85 1.24 0.95 0.86 0.90 0.86 0.81 0.86 0.86 0.81 0.73 0.74 0.85 0.89 0.95 1.11 1.29 1.63 2.00 2.22 2.28 2.18 2.29 2.43 2.45 2.45 2.40 2.19 2.08 2.16 2.24 2.29 2.36 2.38 2.36 2.28 2.31 2.54 2.61 2.38 2.48 2.60 2.56